FW8032 Weather Reports


time (UTC)temp
C
wind
direction
speed
KPH
gust
KPH
rain 1hr
cm
rain 24hr
cm
rain mn
cm
humidity
%
barometer
mb
20260510190646 21 78 1.6 1.6 0.00 0.00 0.00 42 1020.5
20260510190144 21 78 3.2 3.2 0.00 0.00 0.00 45 1020.9
20260510185640 21 38 1.6 1.6 0.00 0.00 0.00 42 1020.9
20260510185138 21 38 0.0 0.0 0.00 0.00 0.00 44 1020.9
20260510184635 22 77 0.0 0.0 0.00 0.00 0.00 45 1020.9
20260510184131 21 41 0.0 0.0 0.00 0.00 0.00 44 1020.9
20260510183626 21 42 3.2 3.2 0.00 0.00 0.00 44 1020.9
20260510183121 22 24 3.2 3.2 0.00 0.00 0.00 43 1020.9
20260510182619 22 72 3.2 3.2 0.00 0.00 0.00 43 1020.9
20260510182114 22 72 0.0 0.0 0.00 0.00 0.00 46 1020.9
20260510181611 22 66 0.0 0.0 0.00 0.00 0.00 45 1020.9
20260510181108 21 60 0.0 0.0 0.00 0.00 0.00 44 1020.9
20260510180604 21 82 0.0 0.0 0.00 0.00 0.00 44 1020.9
20260510175557 21 31 1.6 1.6 0.00 0.00 0.00 41 1020.9
20260510175053 21 47 3.2 3.2 0.00 0.00 0.00 45 1020.9
20260510174551 21 54 0.0 0.0 0.00 0.00 0.00 45 1020.9
20260510174048 21 54 3.2 3.2 0.00 0.00 0.00 42 1020.9
20260510173543 21 21 3.2 3.2 0.00 0.00 0.00 42 1020.9
20260510173040 21 41 3.2 3.2 0.00 0.00 0.00 44 1020.9
20260510172536 21 18 3.2 3.2 0.00 0.00 0.00 46 1020.5
20260510172032 21 27 0.0 0.0 0.00 0.00 0.00 45 1020.9
20260510171529 21 41 0.0 0.0 0.00 0.00 0.00 48 1020.5
20260510171027 20 42 1.6 1.6 0.00 0.00 0.00 47 1020.5
20260510170523 20 60 0.0 0.0 0.00 0.00 0.00 47 1020.2
20260510170020 20 72 4.8 4.8 0.00 0.00 0.00 48 1020.2
20260510165515 20 61 3.2 3.2 0.00 0.00 0.00 47 1020.2
20260510165012 20 114 6.4 8.0 0.00 0.00 0.00 47 1020.2
20260510164509 20 42 3.2 3.2 0.00 0.00 0.00 46 1020.2
20260510164004 20 40 4.8 4.8 0.00 0.00 0.00 45 1020.2
20260510163500 20 21 4.8 4.8 0.00 0.00 0.00 46 1020.2
20260510162955 20 12 6.4 8.0 0.00 0.00 0.00 47 1019.9
20260510162452 20 20 4.8 4.8 0.00 0.00 0.00 46 1020.2
20260510161949 20 44 3.2 3.2 0.00 0.00 0.00 51 1020.2
20260510161444 20 42 0.0 0.0 0.00 0.00 0.00 54 1020.2
20260510160942 20 83 3.2 3.2 0.00 0.00 0.00 52 1020.2
20260510160439 19 42 3.2 3.2 0.00 0.00 0.00 54 1020.2
20260510155937 19 36 6.4 6.4 0.00 0.00 0.00 53 1019.9
20260510155435 18 25 3.2 3.2 0.00 0.00 0.00 57 1019.9
20260510154931 18 48 3.2 3.2 0.00 0.00 0.00 55 1019.9
20260510154427 18 42 0.0 0.0 0.00 0.00 0.00 61 1019.2
20260510153926 18 48 0.0 0.0 0.00 0.00 0.00 59 1019.5
20260510153423 18 48 3.2 3.2 0.00 0.00 0.00 57 1019.2
20260510152919 18 42 1.6 1.6 0.00 0.00 0.00 59 1019.2
20260510152417 18 50 1.6 1.6 0.00 0.00 0.00 61 1018.8
20260510151913 17 42 0.0 0.0 0.00 0.00 0.00 61 1018.8
20260510151411 17 38 3.2 3.2 0.00 0.00 0.00 62 1019.2
20260510150907 17 43 3.2 3.2 0.00 0.00 0.00 62 1019.2
20260510150402 17 32 3.2 3.2 0.00 0.00 0.00 61 1018.8
20260510145859 17 26 3.2 3.2 0.00 0.00 0.00 61 1018.8
20260510145355 17 18 3.2 3.2 0.00 0.00 0.00 63 1019.2
20260510144851 17 30 3.2 3.2 0.00 0.00 0.00 67 1019.2
20260510144349 17 24 3.2 3.2 0.00 0.00 0.00 72 1019.5
20260510143843 17 54 3.2 3.2 0.00 0.00 0.00 71 1019.5
20260510143339 17 25 3.2 3.2 0.00 0.00 0.00 73 1019.2
20260510142837 16 26 3.2 3.2 0.00 0.00 0.00 74 1019.2
20260510142333 16 12 3.2 3.2 0.00 0.00 0.00 75 1019.5
20260510141830 16 38 0.0 0.0 0.00 0.00 0.00 75 1019.5
20260510141327 16 42 0.0 0.0 0.00 0.00 0.00 75 1019.5
20260510140825 16 42 0.0 0.0 0.00 0.00 0.00 75 1019.5
20260510140320 16 24 0.0 0.0 0.00 0.00 0.00 75 1019.5
20260510135813 16 36 3.2 3.2 0.00 0.00 0.00 75 1019.2
20260510135310 16 42 0.0 0.0 0.00 0.00 0.00 75 1019.2
20260510134808 16 54 3.2 3.2 0.00 0.00 0.00 74 1019.2
20260510134304 16 24 3.2 3.2 0.00 0.00 0.00 74 1019.2
20260510133800 16 37 1.6 1.6 0.00 0.00 0.00 74 1019.2
20260510133256 16 30 3.2 3.2 0.00 0.00 0.00 75 1018.8
20260510132752 17 30 1.6 1.6 0.00 0.00 0.00 75 1018.8
20260510132250 17 36 3.2 3.2 0.00 0.00 0.00 74 1018.8
20260510131746 16 24 3.2 3.2 0.00 0.00 0.00 75 1018.5
20260510131245 16 38 1.6 1.6 0.00 0.00 0.00 76 1018.5
20260510130741 16 48 3.2 3.2 0.00 0.00 0.00 76 1018.5
20260510130238 16 44 3.2 3.2 0.00 0.00 0.00 77 1018.5
20260510125734 16 27 3.2 3.2 0.00 0.00 0.00 77 1018.1
20260510125230 16 43 3.2 3.2 0.00 0.00 0.00 77 1017.7
20260510124727 16 37 1.6 1.6 0.00 0.00 0.00 77 1017.7
20260510124225 16 120 0.0 0.0 0.00 0.00 0.00 78 1018.5
20260510123719 16 77 3.2 3.2 0.00 0.00 0.00 78 1017.7
20260510123216 16 72 1.6 1.6 0.00 0.00 0.00 78 1017.7
20260510122712 16 36 0.0 0.0 0.00 0.00 0.00 79 1017.4
20260510122209 15 36 3.2 3.2 0.00 0.00 0.00 80 1017.4
20260510121705 15 25 0.0 0.0 0.00 0.00 0.00 81 1017.4
20260510121203 15 25 0.0 0.0 0.00 0.00 0.00 81 1017.4
20260510120700 15 24 3.2 3.2 0.00 0.00 0.00 82 1017.4
20260510120156 15 36 0.0 0.0 0.00 0.00 0.00 82 1016.7
20260510115652 15 43 0.0 0.0 0.00 0.00 0.00 82 1016.7
20260510115150 15 43 0.0 0.0 0.00 0.00 0.00 82 1016.7
20260510114645 15 42 0.0 0.0 0.00 0.00 0.00 82 1016.7
20260510114142 15 42 0.0 0.0 0.00 0.00 0.00 81 1016.7
20260510113637 15 20 0.0 0.0 0.00 0.00 0.00 81 1016.4
20260510113135 15 42 0.0 0.0 0.00 0.00 0.00 81 1016.0
20260510112631 15 42 0.0 0.0 0.00 0.00 0.00 81 1016.4
20260510112128 15 42 0.0 0.0 0.00 0.00 0.00 81 1016.0
20260510111624 15 42 3.2 3.2 0.00 0.00 0.00 82 1016.0
20260510111120 15 42 0.0 0.0 0.00 0.00 0.00 83 1016.0
20260510110616 15 30 0.0 0.0 0.00 0.00 0.00 83 1016.0
20260510110113 15 30 0.0 0.0 0.00 0.00 0.00 83 1015.7
20260510105609 15 30 0.0 0.0 0.00 0.00 0.00 83 1016.0
20260510105103 15 30 0.0 0.0 0.00 0.00 0.00 83 1015.7
20260510104600 15 30 0.0 0.0 0.00 0.00 0.00 83 1015.7
20260510104057 15 30 0.0 0.0 0.00 0.00 0.00 82 1015.7
20260510103554 15 30 0.0 0.0 0.00 0.00 0.00 82 1015.7
20260510103050 15 30 0.0 0.0 0.00 0.00 0.00 82 1015.4
20260510102545 15 30 3.2 3.2 0.00 0.00 0.00 82 1015.7
20260510102042 15 76 0.0 0.0 0.00 0.00 0.00 81 1015.7
20260510101540 15 77 0.0 0.0 0.00 0.00 0.00 81 1015.4
20260510101038 15 84 0.0 0.0 0.00 0.00 0.00 80 1015.7
20260510100533 15 84 0.0 0.0 0.00 0.00 0.00 80 1015.4
20260510100031 16 84 0.0 0.0 0.00 0.00 0.00 80 1015.4
20260510095527 16 84 0.0 0.0 0.00 0.00 0.00 79 1015.4
20260510095026 16 84 0.0 0.0 0.00 0.00 0.00 79 1015.4
20260510094521 16 84 0.0 0.0 0.00 0.00 0.00 78 1015.4
20260510094017 16 162 0.0 0.0 0.00 0.00 0.00 77 1015.0
20260510093513 16 162 0.0 0.0 0.00 0.00 0.00 76 1015.0
20260510093010 16 162 0.0 0.0 0.00 0.00 0.00 75 1014.7
20260510092507 16 162 0.0 0.0 0.00 0.00 0.00 74 1014.7
20260510092006 17 162 0.0 0.0 0.00 0.00 0.00 74 1014.2
20260510091503 17 162 0.0 0.0 0.00 0.00 0.00 72 1014.2
20260510090959 17 162 0.0 0.0 0.00 0.00 0.00 72 1014.7
20260510090456 17 162 0.0 0.0 0.00 0.00 0.00 72 1014.7
20260510085952 17 162 0.0 0.0 0.00 0.00 0.00 72 1014.2
20260510085447 17 162 0.0 0.0 0.00 0.00 0.00 72 1014.2
20260510084943 17 162 0.0 0.0 0.00 0.00 0.00 73 1013.9
20260510084440 17 162 0.0 0.0 0.00 0.00 0.00 74 1013.9
20260510083937 17 162 0.0 0.0 0.00 0.00 0.00 74 1014.2
20260510083433 17 162 0.0 0.0 0.00 0.00 0.00 73 1013.9
20260510082928 17 162 0.0 0.0 0.00 0.00 0.00 72 1013.9
20260510082427 17 162 0.0 0.0 0.00 0.00 0.00 72 1014.2
20260510081925 17 162 0.0 0.0 0.00 0.00 0.00 72 1013.9
20260510081421 17 162 0.0 0.0 0.00 0.00 0.00 72 1013.9
20260510080918 17 162 0.0 0.0 0.00 0.00 0.00 73 1014.2
20260510080417 17 162 0.0 0.0 0.00 0.00 0.00 73 1014.2
20260510075914 17 162 0.0 0.0 0.00 0.00 0.00 74 1013.9
20260510075412 17 162 0.0 0.0 0.00 0.00 0.00 74 1013.9
20260510074908 17 162 0.0 0.0 0.00 0.00 0.00 73 1014.2
20260510074406 17 162 0.0 0.0 0.00 0.00 0.00 73 1014.2
20260510073902 17 162 0.0 0.0 0.00 0.00 0.00 72 1014.7
20260510073357 17 162 0.0 0.0 0.00 0.00 0.00 72 1013.9
20260510072854 17 162 0.0 0.0 0.00 0.00 0.00 72 1013.9
20260510072351 17 162 0.0 0.0 0.00 0.00 0.00 72 1014.2
20260510071847 17 162 0.0 0.0 0.00 0.00 0.00 71 1014.2
20260510071343 17 162 0.0 0.0 0.00 0.00 0.00 71 1014.2
20260510070842 18 162 0.0 0.0 0.00 0.00 0.00 70 1014.2
20260510070338 18 162 0.0 0.0 0.00 0.00 0.00 70 1013.9
20260510065833 18 162 0.0 0.0 0.00 0.00 0.00 70 1013.9
20260510065330 19 162 0.0 0.0 0.00 0.00 0.00 66 1013.6
20260510064827 19 162 0.0 0.0 0.00 0.00 0.00 62 1013.2
20260510064325 19 162 0.0 0.0 0.00 0.00 0.00 62 1013.2
20260510063821 19 162 0.0 0.0 0.00 0.00 0.00 63 1012.9
20260510063317 18 143 3.2 3.2 0.00 0.00 0.00 63 1012.9
20260510062814 18 144 6.4 6.4 0.00 0.00 0.00 65 1013.2
20260510062310 17 150 0.0 0.0 0.00 0.00 0.00 69 1013.2
20260510061805 17 150 0.0 0.0 0.00 0.00 0.00 72 1012.9
20260510061303 17 150 0.0 0.0 0.00 0.00 0.00 74 1013.2
20260510060758 16 150 0.0 0.0 0.00 0.00 0.00 78 1013.2
20260510060256 16 150 0.0 0.0 0.00 0.00 0.00 77 1013.2
20260510055752 16 150 0.0 0.0 0.00 0.00 0.00 83 1012.9
20260510055250 16 150 0.0 0.0 0.00 0.00 0.00 86 1013.2
20260510054750 16 150 0.0 0.0 0.00 0.00 0.00 85 1013.2
20260510054247 16 150 0.0 0.0 0.00 0.00 0.00 83 1013.9
20260510053746 16 150 0.0 0.0 0.00 0.00 0.00 83 1014.2
20260510053242 16 150 0.0 0.0 0.00 0.00 0.00 82 1013.9
20260510052738 17 150 0.0 0.0 0.00 0.00 0.00 82 1013.9
20260510052234 17 150 0.0 0.0 0.00 0.00 0.00 79 1014.2
20260510051730 17 150 0.0 0.0 0.00 0.00 0.00 76 1013.9
20260510051227 17 150 0.0 0.0 0.00 0.00 0.00 76 1014.2
20260510050724 17 150 0.0 0.0 0.00 0.00 0.00 76 1014.2
20260510050221 17 150 0.0 0.0 0.00 0.00 0.00 74 1013.9
20260510045718 17 150 0.0 0.0 0.00 0.00 0.00 72 1013.9
20260510045214 17 150 0.0 0.0 0.00 0.00 0.00 71 1013.9
20260510044711 17 150 0.0 0.0 0.00 0.00 0.00 70 1013.9
20260510044209 17 150 0.0 0.0 0.00 0.00 0.00 71 1013.9
20260510043704 16 150 0.0 0.0 0.00 0.00 0.00 75 1013.9
20260510043201 17 150 0.0 0.0 0.00 0.00 0.00 77 1013.6
20260510042658 17 150 0.0 0.0 0.00 0.00 0.00 78 1013.9
20260510042154 17 150 0.0 0.0 0.00 0.00 0.00 78 1013.9
20260510041651 17 150 0.0 0.0 0.00 0.00 0.00 77 1013.9
20260510041148 17 150 0.0 0.0 0.00 0.00 0.00 75 1013.9
20260510040645 17 150 0.0 0.0 0.00 0.00 0.00 74 1013.6
20260510040142 17 150 0.0 0.0 0.00 0.00 0.00 76 1013.9
20260510035638 17 150 0.0 0.0 0.00 0.00 0.00 76 1013.9
20260510035133 17 150 0.0 0.0 0.00 0.00 0.00 78 1013.6
20260510034630 17 150 0.0 0.0 0.00 0.00 0.00 78 1013.6
20260510034127 17 150 0.0 0.0 0.00 0.00 0.00 76 1013.6
20260510033623 17 150 0.0 0.0 0.00 0.00 0.00 75 1013.6
20260510033121 17 150 0.0 0.0 0.00 0.00 0.00 76 1013.2
20260510032617 17 150 0.0 0.0 0.00 0.00 0.00 76 1013.2
20260510032113 18 150 0.0 0.0 0.00 0.00 0.00 75 1013.2
20260510031608 18 150 0.0 0.0 0.00 0.00 0.00 73 1013.2
20260510031105 18 150 0.0 0.0 0.00 0.00 0.00 72 1012.9
20260510030559 18 150 0.0 0.0 0.00 0.00 0.00 74 1012.9
20260510030057 18 150 0.0 0.0 0.00 0.00 0.00 75 1012.9
20260510025554 18 150 0.0 0.0 0.00 0.00 0.00 76 1012.9
20260510025052 18 150 0.0 0.0 0.00 0.00 0.00 76 1012.9
20260510024548 18 150 0.0 0.0 0.00 0.00 0.00 76 1012.9
20260510024045 18 150 0.0 0.0 0.00 0.00 0.00 75 1012.9
20260510023541 18 150 0.0 0.0 0.00 0.00 0.00 73 1012.5
20260510023038 18 150 0.0 0.0 0.00 0.00 0.00 73 1012.5
20260510022538 19 150 0.0 0.0 0.00 0.00 0.00 72 1012.2
20260510022032 19 150 0.0 0.0 0.00 0.00 0.00 70 1012.2
20260510021529 19 150 0.0 0.0 0.00 0.00 0.00 70 1011.9
20260510021027 19 150 0.0 0.0 0.00 0.00 0.00 70 1011.9
20260510020520 19 150 0.0 0.0 0.00 0.00 0.00 72 1011.9
20260510020016 20 150 0.0 0.0 0.00 0.00 0.00 71 1011.5
20260510015512 20 150 0.0 0.0 0.00 0.00 0.00 70 1011.5
20260510015008 20 150 0.0 0.0 0.00 0.00 0.00 69 1011.5
20260510014505 20 150 0.0 0.0 0.00 0.00 0.00 69 1011.2
20260510014002 20 150 0.0 0.0 0.00 0.00 0.00 69 1011.5
20260510013456 21 150 0.0 0.0 0.00 0.00 0.00 64 1011.2
20260510012953 21 150 0.0 0.0 0.00 0.00 0.00 63 1011.2
20260510012447 21 150 0.0 0.0 0.00 0.00 0.00 66 1010.9
20260510011942 21 150 0.0 0.0 0.00 0.00 0.00 58 1011.2
20260510011437 22 150 0.0 0.0 0.00 0.00 0.00 55 1010.9
20260510010934 22 150 0.0 0.0 0.00 0.00 0.00 54 1010.9
20260510010431 22 150 0.0 0.0 0.00 0.00 0.00 53 1010.4
20260510005928 23 154 0.0 0.0 0.00 0.00 0.00 53 1010.4
20260510005424 23 154 0.0 0.0 0.00 0.00 0.00 52 1010.1
20260510004921 23 154 0.0 0.0 0.00 0.00 0.00 51 1010.4
20260510004419 24 154 0.0 0.0 0.00 0.00 0.00 51 1010.4
20260510003917 24 154 0.0 0.0 0.00 0.00 0.00 50 1010.4
20260510003414 25 154 0.0 0.0 0.00 0.00 0.00 49 1010.4
20260510002912 25 154 0.0 0.0 0.00 0.00 0.00 49 1010.9
20260510002410 25 154 0.0 0.0 0.00 0.00 0.00 47 1010.4
20260510001906 26 154 0.0 0.0 0.00 0.00 0.00 46 1010.9
20260510001404 26 154 0.0 0.0 0.00 0.00 0.00 44 1010.9
20260510000900 27 154 0.0 0.0 0.00 0.00 0.00 41 1010.9
20260510000357 27 154 0.0 0.0 0.00 0.00 0.00 40 1010.4
20260509235854 28 154 0.0 0.0 0.00 0.00 0.00 38 1010.9
20260509235350 28 153 0.0 0.0 0.00 0.00 0.00 37 1010.9
20260509234846 28 153 0.0 0.0 0.00 0.00 0.00 37 1010.4
20260509234344 29 153 0.0 0.0 0.00 0.00 0.00 35 1010.9
20260509233842 30 153 0.0 0.0 0.00 0.00 0.00 35 1010.9
20260509233339 30 153 0.0 0.0 0.00 0.00 0.00 33 1010.9
20260509232834 30 153 0.0 0.0 0.00 0.00 0.00 31 1010.9
20260509232333 29 153 0.0 0.0 0.00 0.00 0.00 32 1010.9
20260509231828 28 153 0.0 0.0 0.00 0.00 0.00 31 1010.9
20260509231326 28 153 0.0 0.0 0.00 0.00 0.00 31 1011.2
20260509230823 29 150 0.0 0.0 0.00 0.00 0.00 32 1010.9
20260509230320 29 156 1.6 1.6 0.00 0.00 0.00 31 1010.4
20260509225815 29 181 0.0 0.0 0.00 0.00 0.00 32 1010.4
20260509225312 28 181 0.0 0.0 0.00 0.00 0.00 31 1010.4
20260509224808 28 181 0.0 0.0 0.00 0.00 0.00 32 1010.9
20260509224305 29 156 3.2 3.2 0.00 0.00 0.00 34 1010.9
20260509223801 28 144 1.6 1.6 0.00 0.00 0.00 29 1010.9
20260509223259 30 164 0.0 0.0 0.00 0.00 0.00 30 1010.9
20260509222755 30 168 0.0 0.0 0.00 0.00 0.00 32 1010.9
20260509222250 30 162 0.0 0.0 0.00 0.00 0.00 30 1010.9
20260509221746 29 160 0.0 0.0 0.00 0.00 0.00 31 1011.2
20260509221243 30 183 3.2 3.2 0.00 0.00 0.00 29 1010.9
20260509220739 30 270 0.0 0.0 0.00 0.00 0.00 32 1010.9
20260509220236 30 142 3.2 3.2 0.00 0.00 0.00 31 1011.2
20260509215731 30 168 1.6 1.6 0.00 0.00 0.00 29 1010.9
20260509215228 29 282 0.0 0.0 0.00 0.00 0.00 30 1010.9
20260509214725 29 282 0.0 0.0 0.00 0.00 0.00 30 1010.9
20260509214222 29 264 0.0 0.0 0.00 0.00 0.00 30 1011.2
20260509213719 29 270 4.8 4.8 0.00 0.00 0.00 32 1011.2
20260509213214 30 312 1.6 1.6 0.00 0.00 0.00 28 1011.2
20260509212712 29 48 0.0 0.0 0.00 0.00 0.00 27 1011.2
20260509212209 28 270 0.0 0.0 0.00 0.00 0.00 29 1011.2
20260509211705 29 270 3.2 3.2 0.00 0.00 0.00 29 1011.2
20260509211201 29 270 1.6 1.6 0.00 0.00 0.00 32 1011.2
20260509210658 28 270 0.0 0.0 0.00 0.00 0.00 30 1011.2
20260509210156 29 270 0.0 0.0 0.00 0.00 0.00 33 1011.2
20260509205651 30 258 0.0 0.0 0.00 0.00 0.00 31 1011.5
20260509205150 30 198 6.4 6.4 0.00 0.00 0.00 32 1011.5
20260509204646 30 168 0.0 0.0 0.00 0.00 0.00 33 1011.2
20260509204143 29 168 0.0 0.0 0.00 0.00 0.00 31 1011.2
20260509203639 29 176 3.2 3.2 0.00 0.00 0.00 31 1011.5
20260509203137 29 320 0.0 0.0 0.00 0.00 0.00 34 1011.5
20260509202637 29 270 3.2 3.2 0.00 0.00 0.00 34 1011.9
20260509202133 30 270 3.2 3.2 0.00 0.00 0.00 37 1011.5
20260509201628 29 276 0.0 0.0 0.00 0.00 0.00 34 1011.5
20260509201126 28 128 0.0 0.0 0.00 0.00 0.00 35 1011.9
20260509200621 28 210 0.0 0.0 0.00 0.00 0.00 43 1011.5
20260509200117 28 270 3.2 3.2 0.00 0.00 0.00 37 1011.5
20260509195613 28 132 0.0 0.0 0.00 0.00 0.00 36 1011.9
20260509195107 28 276 0.0 0.0 0.00 0.00 0.00 40 1011.9
20260509194607 27 270 3.2 3.2 0.00 0.00 0.00 45 1011.9
20260509194105 27 270 3.2 3.2 0.00 0.00 0.00 37 1011.5
20260509193601 27 306 0.0 0.0 0.00 0.00 0.00 39 1011.9
20260509193057 28 132 3.2 3.2 0.00 0.00 0.00 41 1011.9
20260509192554 27 222 0.0 0.0 0.00 0.00 0.00 40 1011.9
20260509192048 27 168 0.0 0.0 0.00 0.00 0.00 43 1011.9
20260509191543 27 165 3.2 3.2 0.00 0.00 0.00 45 1011.9
20260509191039 27 108 3.2 3.2 0.00 0.00 0.00 43 1011.9